Overview Statistics Trail Chart Weather Telemetry Raw packets
 

This is the latest recevied weather packets stored in our database for station/object N6GPM. If no packets are shown the sender has not sent any weather packets the latest 10 day(s).

<< 3 4 5 6 7 8 9 >>
Time Temp. Humidity Pressure Rain* Wind** Luminosity Snow
1788658363 28.89° C 30% 1016.8 hPa 0 mm - 40 W/m² -
1788658058 29.44° C 30% 1016.8 hPa 0 mm - 51 W/m² -
1788657753 29.44° C 30% 1017 hPa 0 mm - 64 W/m² -
1788657449 30° C 29% 1017.2 hPa 0 mm - 74 W/m² -
1788657143 30° C 29% 1016.9 hPa 0 mm - 103 W/m² -
1788656839 30° C 29% 1016.9 hPa 0 mm - 116 W/m² -
1788656563 30.56° C 29% 1017 hPa 0 mm - 130 W/m² -
1788656235 30° C 30% 1016.8 hPa 0 mm - 155 W/m² -
1788655929 30.56° C 29% 1016.9 hPa 0 mm - 108 W/m² -
1788655628 30.56° C 29% 1016.8 hPa 0 mm - 117 W/m² -
1788655322 30.56° C 29% 1017 hPa 0 mm - 141 W/m² -
1788655018 30.56° C 29% 1016.7 hPa 0 mm - 227 W/m² -
1788654713 30.56° C 29% 1016.7 hPa 0 mm - 282 W/m² -
1788654408 31.11° C 28% 1016.6 hPa 0 mm - 161 W/m² -
1788654103 30.56° C 29% 1017 hPa 0 mm - 123 W/m² -
1788653798 31.11° C 28% 1016.7 hPa 0 mm - 130 W/m² -
1788653492 31.67° C 27% 1016.4 hPa 0 mm - 396 W/m² -
1788653188 31.67° C 26% 1016.7 hPa 0 mm - 433 W/m² -
1788652885 31.67° C 26% 1016.5 hPa 0 mm - 425 W/m² -
1788652582 32.22° C 24% 1016.7 hPa 0 mm - 491 W/m² -
1788652277 32.22° C 25% 1016.6 hPa 0 mm - 475 W/m² -
1788651972 32.22° C 24% 1016.5 hPa 0 mm - 381 W/m² -
1788651668 32.22° C 23% 1016.7 hPa 0 mm - 590 W/m² -
1788651368 31.67° C 23% 1016.7 hPa 0 mm - 664 W/m² -
1788651062 31.67° C 23% 1016.7 hPa 0 mm - 313 W/m² -

* Rain latest hour (hover to see other rain measurements)
** Current wind speed in m/s (hover to see current wind gust speed)